Sanford, ME

2:10 AM EDT on August 29, 2016 (GMT -0400)
Sanford Regional

Weather History for KSFM - February, 2014

Change the Weather History Date:

Monday, February 24, 2014

  Actual Average Record
Temperature  
Mean Temperature 28 °F -  
Max Temperature 37 °F 34 °F 39 °F (2011)
Min Temperature 19 °F 16 °F -20 °F (2015)
Degree Days  
Heating Degree Days 37    
Moisture  
Dew Point 7 °F    
Average Humidity 40    
Maximum Humidity 63    
Minimum Humidity 25    
Precipitation  
Precipitation 0.00 in - - ()
Sea Level Pressure  
Sea Level Pressure 29.75 in    
Wind  
Wind Speed 10 mph (WNW)    
Max Wind Speed 21 mph    
Max Gust Speed 30 mph    
Visibility 10 miles    
Events      
Averages and records for this station are not official NWS values.
T = Trace of Precipitation, MM = Missing Value Source: NWS Daily Summary

Daily Weather History Graph

Daily Weather History Graph

Search for Another Location

Airport or City:

Trip Planner

Search our weather history database for the weather conditions in past years. The results will help you decide how hot, cold, wet, or windy it might be!

Date:

Astronomy

Feb. 24, 2014 Rise Set
Actual Time 6:27 AM EST 5:25 PM EST
Civil Twilight 5:58 AM EST 5:54 PM EST
Nautical Twilight 5:25 AM EST 6:27 PM EST
Astronomical Twilight 4:52 AM EST 7:00 PM EST
Moon 2:28 AM EST (2/24) 12:17 PM EST (2/24)
Length of Visible Light 11h 55m
Length of Day
10h 58m
Waning Crescent, 28% of the Moon is Illuminated
Feb 24
Waning Crescent
Mar 1
New
Mar 8
First Quarter
Mar 16
Full
Mar 23
Last Quarter

Hourly Weather History & Observations

Time (EST) Temp. Windchill Dew Point Humidity Pressure Visibility Wind Dir Wind Speed Gust Speed Precip Events Conditions
12:15 AM 33.8 °F 28.6 °F 17.6 °F 52% 29.73 in 10.0 mi WSW 5.8 mph - N/A   Overcast
12:35 AM 37.4 °F 32.8 °F 17.6 °F 45% 29.73 in 10.0 mi West 5.8 mph - N/A   Overcast
12:55 AM 37.4 °F 33.8 °F 15.8 °F 41% 29.72 in 10.0 mi West 4.6 mph - N/A   Overcast
1:15 AM 37.4 °F 33.8 °F 14.0 °F 38% 29.72 in 10.0 mi WSW 4.6 mph - N/A   Mostly Cloudy
1:35 AM 35.6 °F 32.8 °F 15.8 °F 44% 29.72 in 10.0 mi SW 3.5 mph - N/A   Scattered Clouds
1:55 AM 35.6 °F 31.7 °F 15.8 °F 44% 29.71 in 10.0 mi WSW 4.6 mph - N/A   Clear
2:15 AM 35.6 °F 30.7 °F 17.6 °F 48% 29.71 in 10.0 mi West 5.8 mph - N/A   Clear
2:35 AM 35.6 °F 30.7 °F 12.2 °F 38% 29.70 in 10.0 mi West 5.8 mph - N/A   Clear
2:55 AM 37.4 °F 31.4 °F 10.4 °F 33% 29.70 in 10.0 mi West 8.1 mph - N/A   Clear
3:15 AM 35.6 °F 28.6 °F 10.4 °F 35% 29.69 in 10.0 mi West 9.2 mph - N/A   Clear
3:35 AM 35.6 °F 29.2 °F 12.2 °F 38% 29.70 in 10.0 mi West 8.1 mph - N/A   Partly Cloudy
3:55 AM 35.6 °F 29.9 °F 15.8 °F 44% 29.70 in 10.0 mi West 6.9 mph - N/A   Clear
4:15 AM 35.6 °F 29.2 °F 10.4 °F 35% 29.71 in 10.0 mi WNW 8.1 mph - N/A   Clear
4:35 AM 33.8 °F 27.7 °F 6.8 °F 32% 29.72 in 10.0 mi WNW 6.9 mph - N/A   Clear
4:55 AM 33.8 °F 26.4 °F 6.8 °F 32% 29.72 in 10.0 mi WNW 9.2 mph - N/A   Clear
5:15 AM 33.8 °F 25.8 °F 8.6 °F 35% 29.72 in 10.0 mi WNW 10.4 mph - N/A   Clear
5:35 AM 32.0 °F 22.1 °F 10.4 °F 41% 29.72 in 10.0 mi WNW 13.8 mph 19.6 mph N/A   Clear
5:55 AM 30.2 °F 21.3 °F 6.8 °F 37% 29.73 in 10.0 mi WNW 10.4 mph 20.7 mph N/A   Clear
6:15 AM 30.2 °F 20.8 °F 6.8 °F 37% 29.73 in 10.0 mi WNW 11.5 mph 18.4 mph N/A   Clear
6:35 AM 30.2 °F 21.3 °F 12.2 °F 47% 29.74 in 10.0 mi WNW 10.4 mph 19.6 mph N/A   Clear
6:55 AM 28.4 °F 18.0 °F 8.6 °F 43% 29.74 in 10.0 mi WNW 12.7 mph 19.6 mph N/A   Clear
7:15 AM 30.2 °F 18.9 °F 8.6 °F 40% 29.75 in 10.0 mi West 16.1 mph 21.9 mph N/A   Clear
7:35 AM 30.2 °F 18.9 °F 8.6 °F 40% 29.75 in 9.0 mi West 16.1 mph 26.5 mph N/A   Clear
7:55 AM 30.2 °F 19.8 °F 6.8 °F 37% 29.75 in 8.0 mi WNW 13.8 mph 26.5 mph N/A   Clear
8:15 AM 30.2 °F 18.5 °F 5.0 °F 34% 29.75 in 10.0 mi WNW 17.3 mph 21.9 mph N/A   Clear
8:35 AM 30.2 °F 19.3 °F 8.6 °F 40% 29.75 in 10.0 mi WNW 15.0 mph 27.6 mph N/A   Clear
8:55 AM 30.2 °F 20.2 °F 8.6 °F 40% 29.75 in 10.0 mi WNW 12.7 mph 19.6 mph N/A   Clear
9:15 AM 30.2 °F 18.5 °F 5.0 °F 34% 29.74 in 10.0 mi West 17.3 mph 27.6 mph N/A   Partly Cloudy
9:35 AM 30.2 °F 18.9 °F 6.8 °F 37% 29.74 in 10.0 mi NW 16.1 mph 25.3 mph N/A   Partly Cloudy
9:55 AM 30.2 °F 19.3 °F 10.4 °F 44% 29.74 in 10.0 mi NW 15.0 mph 21.9 mph N/A   Scattered Clouds
10:15 AM 30.2 °F 18.5 °F 12.2 °F 47% 29.74 in 10.0 mi WNW 17.3 mph 24.2 mph N/A   Scattered Clouds
10:35 AM 30.2 °F 18.1 °F 6.8 °F 37% 29.73 in 10.0 mi West 18.4 mph 28.8 mph N/A   Mostly Cloudy
10:55 AM 30.2 °F 18.5 °F 3.2 °F 32% 29.73 in 10.0 mi WNW 17.3 mph 25.3 mph N/A   Overcast
11:15 AM 30.2 °F 20.2 °F 8.6 °F 40% 29.72 in 10.0 mi NW 12.7 mph 23.0 mph N/A   Overcast
11:35 AM 30.2 °F 21.9 °F 10.4 °F 44% 29.71 in 10.0 mi NW 9.2 mph 18.4 mph N/A   Overcast
11:55 AM 30.2 °F 19.8 °F 8.6 °F 40% 29.70 in 10.0 mi WNW 13.8 mph 24.2 mph N/A   Overcast
12:15 PM 32.0 °F 20.5 °F 6.8 °F 35% 29.69 in 10.0 mi WNW 18.4 mph 28.8 mph N/A   Overcast
12:35 PM 30.2 °F 17.8 °F 6.8 °F 37% 29.69 in 10.0 mi West 19.6 mph 28.8 mph N/A   Overcast
12:55 PM 30.2 °F 19.8 °F 3.2 °F 32% 29.68 in 10.0 mi NW 13.8 mph 19.6 mph N/A   Overcast
1:15 PM 33.8 °F 23.9 °F 1.4 °F 25% 29.68 in 10.0 mi WNW 15.0 mph 28.8 mph N/A   Overcast
1:35 PM 30.2 °F 19.8 °F 5.0 °F 34% 29.68 in 10.0 mi WNW 13.8 mph 27.6 mph N/A   Overcast
1:55 PM 30.2 °F 19.3 °F 6.8 °F 37% 29.69 in 10.0 mi WNW 15.0 mph 29.9 mph N/A   Overcast
2:15 PM 30.2 °F 18.9 °F 5.0 °F 34% 29.68 in 10.0 mi NW 16.1 mph 26.5 mph N/A   Overcast
2:35 PM 28.4 °F 15.8 °F 3.2 °F 34% 29.70 in 10.0 mi WNW 18.4 mph 26.5 mph N/A   Overcast
2:55 PM 30.2 °F 17.4 °F 3.2 °F 32% 29.70 in 10.0 mi WNW 20.7 mph 29.9 mph N/A   Mostly Cloudy
3:15 PM 28.4 °F 16.6 °F 8.6 °F 43% 29.71 in 10.0 mi WNW 16.1 mph 26.5 mph N/A   Partly Cloudy
3:35 PM 28.4 °F 15.4 °F 5.0 °F 37% 29.71 in 10.0 mi West 19.6 mph 27.6 mph N/A   Partly Cloudy
3:55 PM 28.4 °F 17.0 °F 1.4 °F 31% 29.71 in 10.0 mi WNW 15.0 mph 24.2 mph N/A   Scattered Clouds
4:15 PM 28.4 °F 16.6 °F 3.2 °F 34% 29.71 in 10.0 mi West 16.1 mph 23.0 mph N/A   Partly Cloudy
4:35 PM 26.6 °F 15.2 °F 6.8 °F 43% 29.72 in 10.0 mi West 13.8 mph 24.2 mph N/A   Mostly Cloudy
4:55 PM 26.6 °F 15.2 °F 3.2 °F 37% 29.73 in 10.0 mi WNW 13.8 mph 26.5 mph N/A   Scattered Clouds
5:15 PM 26.6 °F 17.5 °F 3.2 °F 37% 29.74 in 10.0 mi WNW 9.2 mph - N/A   Scattered Clouds
5:35 PM 26.6 °F 16.2 °F 6.8 °F 43% 29.74 in 10.0 mi West 11.5 mph - N/A   Mostly Cloudy
5:55 PM 26.6 °F 14.7 °F 3.2 °F 37% 29.74 in 10.0 mi West 15.0 mph 24.2 mph N/A   Scattered Clouds
6:15 PM 26.6 °F 14.7 °F 1.4 °F 34% 29.76 in 10.0 mi WNW 15.0 mph 23.0 mph N/A   Clear
6:35 PM 26.6 °F 14.7 °F 5.0 °F 40% 29.76 in 10.0 mi WNW 15.0 mph 23.0 mph N/A   Partly Cloudy
6:55 PM 24.8 °F 12.4 °F 3.2 °F 40% 29.77 in 10.0 mi WNW 15.0 mph 25.3 mph N/A   Clear
7:15 PM 24.8 °F 14.0 °F 1.4 °F 36% 29.78 in 10.0 mi WNW 11.5 mph 20.7 mph N/A   Clear
7:35 PM 24.8 °F 11.5 °F 5.0 °F 43% 29.79 in 10.0 mi WNW 17.3 mph 21.9 mph N/A   Clear
7:55 PM 24.8 °F 16.1 °F 3.2 °F 40% 29.81 in 10.0 mi WNW 8.1 mph - N/A   Clear
8:15 PM 23.0 °F 10.1 °F 1.4 °F 39% 29.81 in 10.0 mi WNW 15.0 mph 21.9 mph N/A   Clear
8:35 PM 23.0 °F 11.7 °F 5.0 °F 46% 29.82 in 10.0 mi WNW 11.5 mph 19.6 mph N/A   Clear
8:55 PM 21.2 °F 8.9 °F 1.4 °F 42% 29.83 in 10.0 mi West 12.7 mph 19.6 mph N/A   Clear
9:15 PM 21.2 °F 7.8 °F 5.0 °F 50% 29.84 in 10.0 mi WNW 15.0 mph 18.4 mph N/A   Partly Cloudy
9:35 PM 21.2 °F 10.1 °F 1.4 °F 42% 29.85 in 10.0 mi WNW 10.4 mph 17.3 mph N/A   Unknown
9:55 PM 21.2 °F 8.9 °F 8.6 °F 58% 29.85 in 10.0 mi WNW 12.7 mph 21.9 mph N/A   Scattered Clouds
10:15 PM 19.4 °F 6.0 °F 6.8 °F 58% 29.86 in 10.0 mi WNW 13.8 mph 17.3 mph N/A   Partly Cloudy
10:35 PM 19.4 °F 6.6 °F 5.0 °F 54% 29.87 in 10.0 mi West 12.7 mph 23.0 mph N/A   Partly Cloudy
10:55 PM 19.4 °F 6.6 °F 8.6 °F 63% 29.87 in 10.0 mi West 12.7 mph 20.7 mph N/A   Clear
11:15 PM 19.4 °F 10.4 °F 1.4 °F 46% 29.87 in 10.0 mi West 6.9 mph - N/A   Clear
11:35 PM 19.4 °F 8.6 °F 6.8 °F 58% 29.87 in 10.0 mi West 9.2 mph 16.1 mph N/A   Clear
11:55 PM 19.4 °F 7.9 °F 1.4 °F 46% 29.87 in 10.0 mi West 10.4 mph 18.4 mph N/A   Clear